Location: Ffm
(50.0000°N, 8.5000°E)
Time: 10:17:02
(UTC+01:00)

Envisat - Pass Details

Date: 02 November 2020
Orbit: 764 x 766 km, 98.1° (Epoch: 03 December)

Event Time Altitude Azimuth Distance (km) Brightness Sun altitude
Rises 18:54:24 0° 213° (SSW) 3,222 6.7 -18.6°
Reaches altitude 10° 18:57:36 10° 235° (SW) 2,301 6.3 -19.2°
Maximum altitude 19:00:41 16° 273° (W) 1,921 6.1 -19.7°
Drops below altitude 10° 19:03:46 10° 310° (NW) 2,312 6.2 -20.2°
Sets 19:07:01 0° 332° (NNW) 3,244 6.6 -20.7°
